Weather in Belovskiy

Russia / Altai Krai     52°53′39″N   84°38′21″E
temp.,
°C
wind,
m/s
gust,
m/s
humid.,
%
clouds,
%
prec.,
mm/h
press.,
hPa
HPBL,
m
19 april, mon
mon1901:00+8sw92060100 0.0 1004536
04:00+6wsw714729 0.0 1004317
07:00+1wnw91792100 3.0 1008922
10:00−3nw71181100 0.1 10151077
13:00−2nw6869100 0.2 10201363
16:00−2nnw457999 0.1 1022788
19:00−3n4581100 0.3 1022615
22:00−6n378194 0.0 1024256
20 april, tue
tue2001:00−6nnw248677 0.0 1025164
04:00−7n358812 0.0 1025312
07:00−8n35815 0.0 1026502
10:00−7n4562100 0.0 10271200
13:00−5n3456100 0.0 10271432
16:00−3nne345571 0.0 10261354
19:00−3ne246810 0.0 1026423
22:00−7se11875 0.0 102714
21 april, wed
wed2101:00−8sse11885 0.0 102718
04:00−9sse22875 0.0 102645
07:00−8sse2286100 0.0 102655
10:00−5sse2375100 0.0 1026278
13:00−3se2271100 0.0 1024542
16:00−2ese2165100 0.0 1024693
19:00−2e127272 0.0 1024167
22:00−3ene2280100 0.0 102642
22 april, thu
thu2201:00−3nne2578100 0.0 1027125
04:00−3nne3682100 0.0 1028157
07:00−3n3683100 0.0 1031243
10:00−1n4569100 0.0 1033575
13:00+1ne46595 0.0 10341089
16:00+3nne464998 0.0 10351514
19:00+2nne485697 0.0 1037377
22:000nne511749 0.0 1039420
23 april, fri
fri2301:00−1nne511805 0.0 1039387
04:00−2nne511795 0.0 1039342
07:00−2nne511775 0.0 1039362
10:00+1nne5763100 0.0 1039543
13:00+3nne4553100 0.0 1038875
16:00+5ne3651100 0.0 10361512
19:00+3nw2369100 0.1 103551
22:00+1n5108194 0.0 1035199